Vorticity
8 9 7 5 5 3 2 3 4 5 6 8 9 9 9 9 8 8 6 7 6 6 6 6 7 7 7 8 8 9 9 8 7 7 8 10 9 9 10 9 9 6
9 9 7 6 6 5 4 4 6 7 8 9 9 10 10 9 9 8 6 7 6 6 7 7 8 8 7 9 9 9 9 8 7 8 9 9 9 10 11 10 8 7
6 6 7 6 5 6 6 7 8 9 9 10 10 10 10 9 9 7 6 6 6 6 7 8 9 8 8 8 8 8 8 7 8 9 9 9 9 11 11 9 7 7
7 6 7 6 5 5 5 5 8 10 10 10 11 11 10 8 6 5 5 6 5 6 8 8 8 8 8 8 8 8 8 8 9 9 8 9 10 11 10 8 7 7
9 7 7 8 9 6 4 7 8 10 11 11 11 10 8 6 5 5 6 6 6 6 7 8 8 8 8 8 8 8 8 9 8 8 9 9 10 11 11 8 7 7
9 10 12 12 10 6 5 7 7 8 10 11 11 9 7 7 6 6 7 7 7 7 7 8 7 8 8 8 9 8 8 8 8 8 9 8 9 9 8 7 7 8
6 10 14 11 4 3 7 8 6 7 11 12 10 9 10 10 10 10 10 9 8 8 9 9 9 10 10 9 9 8 8 8 8 8 9 8 8 8 7 7 9 11
5 10 16 9 -1 2 8 9 7 8 13 12 8 8 9 8 7 6 7 8 10 10 10 10 9 9 8 8 8 9 9 8 8 9 8 8 8 8 8 9 11 14
6 10 13 4 -3 6 10 8 9 11 12 10 7 8 6 3 2 -0 0 4 7 9 9 9 8 9 10 10 9 10 10 8 8 8 8 8 8 9 8 10 13 15
5 8 11 1 -3 7 10 8 11 12 10 9 8 7 4 3 3 2 2 4 6 7 8 7 8 10 10 8 8 9 9 8 8 7 7 8 7 8 10 13 15 15
5 10 11 -1 -2 6 8 9 12 10 9 10 9 7 6 5 6 6 6 7 7 7 7 7 8 8 8 8 9 10 9 8 7 7 8 7 7 11 14 15 16 16
10 15 9 -4 -3 5 7 8 11 11 11 12 9 7 6 5 5 4 4 5 7 8 8 11 11 8 8 9 10 9 7 7 8 8 7 7 11 15 16 15 16 18
14 13 4 -3 0 5 6 8 10 12 12 10 7 4 3 3 2 2 4 6 9 9 10 12 10 6 7 9 9 8 7 8 9 8 7 12 15 14 14 16 18 19
12 8 2 2 5 7 6 7 11 12 10 7 5 3 3 3 3 5 6 8 9 9 11 10 8 9 11 11 8 7 9 9 8 8 11 15 14 13 15 18 18 19
2 1 6 7 8 7 6 9 12 10 7 6 5 4 4 4 5 6 6 7 9 9 11 11 10 12 12 9 6 8 9 9 8 12 15 13 12 14 17 19 20 22
-2 3 9 8 6 6 8 10 11 8 4 5 4 3 4 4 4 5 6 9 10 9 11 13 12 12 12 9 9 9 8 9 11 14 13 12 14 16 17 20 22 20
3 10 8 6 8 8 9 10 8 5 4 3 3 2 4 4 4 6 8 10 9 7 9 11 9 10 10 9 8 7 8 11 13 13 12 15 18 16 16 22 21 15
0 10 4 7 10 6 7 7 5 5 5 3 3 2 3 4 5 7 8 7 7 7 9 9 8 8 8 7 7 8 11 13 14 14 15 18 18 13 16 25 20 11
-2 11 4 8 8 3 6 5 4 7 5 3 4 3 3 6 7 7 6 6 8 9 10 10 9 9 9 8 9 10 14 18 19 18 17 16 15 15 20 25 18 10
0 12 7 8 5 2 4 4 6 8 4 3 6 5 4 6 7 7 6 7 9 9 10 11 10 11 10 8 10 15 20 21 18 14 13 14 16 20 24 22 14 11
8 12 9 7 2 2 5 6 9 8 4 5 7 4 5 6 6 7 8 8 10 14 18 17 13 12 9 8 14 20 17 8 -1 -2 6 13 18 22 24 19 13 11
14 11 9 4 3 6 7 8 10 8 7 8 6 4 6 7 6 8 8 8 13 21 19 10 9 11 7 8 12 11 8 2 -9 -8 5 13 17 23 21 15 12 11
12 10 9 5 6 9 8 10 11 11 10 4 -1 1 7 8 8 9 8 8 15 19 7 -2 8 15 8 6 9 8 11 10 0 2 15 15 14 20 19 12 12 12
7 9 7 5 9 9 9 12 13 11 6 -4 -6 3 10 9 8 8 9 12 17 16 6 4 14 17 8 6 10 11 14 14 8 11 22 20 15 18 17 11 12 12
3 6 4 5 8 10 13 15 14 11 2 -5 1 11 10 5 6 11 13 14 15 13 10 11 13 13 9 8 10 12 12 12 11 12 19 25 21 16 15 13 11 9
4 4 2 4 8 14 16 10 5 2 -2 1 8 9 6 8 13 15 12 11 12 11 10 12 12 11 10 8 11 14 11 10 11 11 21 32 24 13 14 14 9 7
Height
5907 5906 5905 5904 5903 5901 5899 5898 5896 5895 5893 5891 5889 5888 5886 5885 5883 5881 5880 5878 5876 5874 5873 5871 5869 5867 5865 5863 5861 5859 5857 5854 5852 5849 5847 5845 5842 5840 5838 5836 5834 5832
5904 5903 5902 5901 5900 5898 5896 5895 5893 5891 5890 5888 5886 5884 5883 5881 5879 5878 5876 5874 5873 5871 5869 5867 5866 5864 5862 5860 5858 5855 5853 5850 5848 5845 5843 5841 5838 5835 5833 5831 5829 5827
5901 5900 5899 5898 5897 5895 5893 5892 5890 5888 5886 5884 5882 5880 5879 5877 5876 5874 5872 5871 5869 5867 5866 5864 5862 5860 5858 5856 5853 5851 5848 5846 5843 5841 5839 5836 5834 5832 5829 5827 5824 5822
5898 5897 5896 5895 5894 5892 5891 5889 5887 5885 5882 5880 5878 5877 5875 5874 5872 5871 5869 5867 5866 5864 5862 5860 5858 5856 5853 5851 5849 5846 5844 5841 5839 5837 5834 5832 5830 5828 5825 5823 5820 5817
5895 5894 5893 5892 5891 5889 5887 5885 5883 5881 5879 5876 5874 5873 5871 5870 5868 5866 5865 5863 5861 5859 5857 5855 5853 5851 5849 5847 5844 5842 5839 5837 5835 5832 5830 5827 5825 5823 5820 5818 5815 5812
5891 5890 5889 5888 5887 5885 5883 5881 5879 5877 5875 5873 5871 5869 5868 5866 5864 5862 5861 5859 5857 5855 5853 5851 5849 5847 5844 5842 5840 5837 5835 5832 5830 5827 5825 5822 5820 5818 5816 5813 5810 5807
5887 5886 5885 5884 5883 5881 5879 5876 5875 5874 5872 5870 5868 5866 5864 5863 5861 5859 5857 5855 5853 5851 5849 5847 5844 5842 5839 5837 5835 5832 5830 5827 5824 5822 5819 5817 5814 5812 5810 5807 5804 5801
5883 5882 5880 5879 5878 5876 5874 5872 5871 5870 5869 5868 5866 5864 5862 5859 5857 5855 5853 5851 5849 5847 5845 5842 5839 5837 5834 5832 5829 5827 5825 5822 5819 5816 5813 5811 5808 5806 5803 5800 5797 5794
5879 5877 5876 5875 5874 5872 5870 5869 5868 5867 5866 5865 5863 5861 5859 5856 5854 5852 5850 5847 5844 5842 5839 5837 5834 5832 5829 5827 5824 5822 5819 5817 5814 5810 5807 5805 5802 5799 5796 5793 5790 5786
5875 5873 5872 5872 5871 5869 5868 5866 5865 5864 5862 5861 5859 5857 5855 5852 5850 5847 5845 5843 5840 5838 5835 5832 5830 5828 5825 5821 5819 5817 5814 5811 5808 5805 5802 5799 5796 5793 5790 5786 5783 5780
5871 5871 5870 5869 5868 5867 5865 5863 5861 5859 5858 5857 5855 5852 5850 5847 5844 5842 5840 5838 5836 5834 5831 5828 5825 5823 5820 5816 5814 5811 5808 5805 5803 5800 5797 5793 5790 5787 5783 5779 5776 5774
5868 5868 5867 5866 5865 5863 5861 5859 5857 5855 5854 5852 5850 5847 5845 5842 5839 5837 5835 5833 5831 5828 5826 5823 5820 5818 5815 5812 5809 5806 5803 5800 5797 5794 5791 5787 5784 5780 5776 5772 5769 5767
5865 5864 5864 5863 5862 5859 5857 5855 5853 5851 5849 5848 5845 5842 5840 5837 5834 5832 5830 5828 5825 5823 5820 5818 5815 5813 5810 5807 5804 5801 5798 5795 5792 5788 5785 5781 5778 5774 5770 5766 5763 5760
5862 5862 5861 5860 5858 5856 5853 5851 5849 5847 5845 5843 5841 5838 5835 5832 5829 5827 5825 5822 5820 5818 5816 5813 5810 5808 5805 5802 5798 5796 5793 5790 5787 5783 5780 5775 5772 5768 5764 5760 5757 5755
5860 5859 5858 5856 5854 5851 5849 5847 5845 5843 5841 5838 5835 5833 5830 5827 5825 5823 5820 5817 5815 5813 5810 5808 5805 5803 5800 5797 5794 5791 5788 5785 5782 5779 5775 5770 5766 5763 5759 5756 5753 5751
5856 5855 5854 5852 5849 5846 5844 5842 5841 5838 5836 5833 5831 5828 5825 5822 5820 5818 5816 5813 5810 5807 5805 5803 5800 5798 5795 5792 5789 5786 5783 5780 5777 5774 5770 5766 5762 5758 5755 5752 5749 5747
5850 5850 5848 5846 5843 5841 5839 5837 5835 5833 5831 5829 5827 5823 5820 5818 5816 5814 5811 5808 5805 5803 5801 5798 5796 5793 5790 5787 5784 5781 5778 5775 5772 5769 5764 5760 5757 5753 5750 5747 5745 5742
5845 5844 5841 5839 5837 5835 5833 5832 5830 5829 5827 5824 5822 5818 5815 5813 5811 5810 5807 5804 5802 5799 5796 5794 5791 5788 5785 5782 5779 5776 5773 5770 5767 5763 5759 5756 5752 5749 5745 5743 5741 5738
5839 5837 5834 5832 5830 5829 5828 5827 5826 5824 5822 5819 5817 5813 5810 5808 5807 5805 5803 5801 5798 5795 5792 5790 5787 5783 5780 5777 5774 5771 5768 5765 5762 5758 5755 5752 5748 5744 5741 5740 5738 5735
5833 5831 5828 5826 5825 5825 5824 5823 5821 5819 5817 5815 5811 5808 5805 5804 5802 5800 5798 5797 5794 5791 5788 5786 5783 5779 5776 5773 5770 5767 5764 5762 5758 5754 5751 5748 5744 5740 5738 5736 5734 5732
5828 5826 5824 5822 5822 5821 5820 5818 5817 5815 5812 5809 5806 5803 5801 5799 5798 5796 5794 5792 5790 5787 5785 5782 5779 5776 5773 5769 5766 5763 5761 5758 5754 5751 5748 5744 5740 5736 5734 5732 5730 5728
5823 5821 5820 5819 5818 5817 5816 5814 5812 5809 5807 5804 5800 5798 5796 5795 5793 5791 5789 5787 5785 5783 5781 5777 5775 5772 5769 5766 5762 5759 5756 5753 5750 5747 5744 5740 5736 5733 5730 5728 5726 5724
5819 5817 5816 5815 5814 5813 5812 5809 5807 5804 5801 5798 5796 5794 5792 5790 5789 5787 5785 5783 5781 5779 5776 5773 5770 5767 5764 5761 5758 5755 5752 5748 5745 5743 5740 5736 5732 5728 5726 5724 5722 5720
5814 5813 5812 5811 5810 5809 5807 5805 5801 5798 5796 5794 5792 5790 5788 5786 5784 5782 5780 5778 5776 5774 5771 5768 5765 5762 5759 5755 5752 5749 5746 5743 5740 5738 5735 5731 5727 5724 5722 5720 5718 5716
5809 5807 5807 5806 5805 5804 5802 5799 5796 5793 5791 5790 5788 5786 5784 5782 5779 5777 5775 5772 5770 5768 5765 5762 5760 5757 5754 5750 5747 5744 5741 5738 5735 5732 5729 5726 5723 5720 5718 5716 5714 5712
5803 5802 5801 5801 5800 5798 5796 5793 5790 5789 5788 5786 5784 5782 5780 5777 5774 5772 5770 5767 5765 5763 5759 5756 5754 5751 5748 5745 5742 5739 5735 5732 5729 5727 5724 5721 5718 5716 5714 5711 5710 5708